This is the latest recevied weather packets stored in our database for station/object N4PWG. If no packets are shown the sender has not sent any weather packets the latest 10 day(s).
| Time | Temp. | Humidity | Pressure | Rain* | Wind** | Luminosity | Snow |
|---|---|---|---|---|---|---|---|
| 1778006556 | 17.78° C | 99% | 1025.2 hPa | 1.27 mm | - | 104 W/m² | - |
| 1778006253 | 17.78° C | 99% | 1025.2 hPa | 1.27 mm | - | 104 W/m² | - |
| 1778005950 | 17.78° C | 99% | 1025.1 hPa | 0 mm | - | 102 W/m² | - |
| 1778005646 | 17.78° C | 99% | 1025.3 hPa | 3.05 mm | - | 75 W/m² | - |
| 1778005343 | 17.78° C | 99% | 1025.3 hPa | 3.05 mm | - | 75 W/m² | - |
| 1778005039 | 17.78° C | 99% | 1025.3 hPa | 3.05 mm | - | 75 W/m² | - |
| 1778004737 | 17.22° C | 99% | 1025.3 hPa | 6.1 mm | - | 68 W/m² | - |
| 1778004434 | 17.78° C | 99% | 1025.9 hPa | 4.32 mm | - | 61 W/m² | - |
| 1778004130 | 17.78° C | 98% | 1025.8 hPa | 1.27 mm | - | 51 W/m² | - |
| 1778003826 | 17.78° C | 98% | 1025.8 hPa | 1.78 mm | - | 56 W/m² | - |
| 1778003418 | 17.22° C | 98% | 1026.2 hPa | 0 mm | - | 43 W/m² | - |
| 1778003115 | 17.22° C | 98% | 1026.2 hPa | 0 mm | - | 43 W/m² | - |
| 1778002811 | 17.22° C | 97% | 1026 hPa | 0 mm | - | 34 W/m² | - |
| 1778002507 | 17.22° C | 97% | 1026.2 hPa | 0 mm | - | 31 W/m² | - |
| 1778000810 | 17.22° C | 97% | 1026.2 hPa | 0 mm | - | 54 W/m² | - |
| 1778000506 | 17.22° C | 97% | 1026.2 hPa | 0 mm | - | 54 W/m² | - |
| 1778000206 | 17.22° C | 97% | 1026 hPa | 0 mm | - | 71 W/m² | - |
| 1777999903 | 16.67° C | 97% | 1026.1 hPa | 0 mm | - | 78 W/m² | - |
| 1777999598 | 16.67° C | 97% | 1026.3 hPa | 0 mm | - | 44 W/m² | - |
| 1777999296 | 16.67° C | 97% | 1026.5 hPa | 0 mm | - | 24 W/m² | - |
| 1777998994 | 17.22° C | 97% | 1026.5 hPa | 0 mm | - | 33 W/m² | - |
| 1777998692 | 17.22° C | 97% | 1026.5 hPa | 0 mm | - | 31 W/m² | - |
| 1777998389 | 17.22° C | 97% | 1026.3 hPa | 0 mm | - | 40 W/m² | - |
| 1777998087 | 17.22° C | 98% | 1026.4 hPa | 0 mm | - | 53 W/m² | - |
| 1777997784 | 17.22° C | 97% | 1026.5 hPa | 0 mm | - | 70 W/m² | - |
* Rain latest hour (hover to see other rain measurements)
** Current wind speed in m/s (hover to see current wind gust speed)